Wetterdaten: Mittwoch, 07.09.2011
Datum Zeit Temp. A. Temp. A. min Temp. A. max Feuchte A. Bod.Feucht 4 Luftdruck Regen Wind Richtung Richtung Sonnenschein ET Solar Taupunkt Windchill Windben Empfang
07.09.2011 00:03 16,5 C 0,0 C 0,0 C 67 % 0 cb 1012,5 hPa 0,0 l/m 11,8 km/h (2 Bft) W-NW 285 0 min 0,000 mm 0 W/m 10,4 C 16,5 C 11,8 km/h (2 Bft) 0,00 %
07.09.2011 00:08 16,5 C 0,0 C 0,0 C 67 % 0 cb 1013,5 hPa 0,0 l/m 21,8 km/h (4 Bft) S-SW 195 0 min 0,000 mm 0 W/m 10,4 C 16,5 C 21,8 km/h (4 Bft) 0,00 %
07.09.2011 00:13 16,5 C 0,0 C 0,0 C 67 % 0 cb 1013,5 hPa 0,0 l/m 16,0 km/h (3 Bft) S-SO 160 0 min 0,000 mm 0 W/m 10,4 C 16,5 C 16,0 km/h (3 Bft) 0,00 %
07.09.2011 00:18 16,5 C 0,0 C 0,0 C 67 % 0 cb 1013,5 hPa 0,0 l/m 16,6 km/h (3 Bft) S-SO 155 0 min 0,000 mm 0 W/m 10,4 C 16,5 C 16,6 km/h (3 Bft) 0,00 %
07.09.2011 00:23 16,4 C 0,0 C 0,0 C 67 % 0 cb 1012,5 hPa 0,0 l/m 17,2 km/h (3 Bft) W 265 0 min 0,000 mm 0 W/m 10,3 C 16,4 C 17,2 km/h (3 Bft) 0,00 %
07.09.2011 00:28 16,4 C 0,0 C 0,0 C 67 % 0 cb 1012,5 hPa 0,0 l/m 12,7 km/h (3 Bft) S 190 0 min 0,000 mm 0 W/m 10,3 C 16,4 C 12,7 km/h (3 Bft) 0,00 %
07.09.2011 00:33 16,4 C 0,0 C 0,0 C 68 % 0 cb 1012,5 hPa 0,0 l/m 23,0 km/h (4 Bft) N-NO 30 0 min 0,000 mm 0 W/m 10,5 C 16,4 C 23,0 km/h (4 Bft) 0,00 %
07.09.2011 00:38 16,4 C 0,0 C 0,0 C 68 % 0 cb 1012,5 hPa 0,0 l/m 15,4 km/h (3 Bft) SO 125 0 min 0,000 mm 0 W/m 10,5 C 16,4 C 15,4 km/h (3 Bft) 0,00 %
07.09.2011 00:43 16,4 C 0,0 C 0,0 C 68 % 0 cb 1012,5 hPa 0,0 l/m 14,8 km/h (3 Bft) W-SW 245 0 min 0,000 mm 0 W/m 10,5 C 16,4 C 14,8 km/h (3 Bft) 0,00 %
07.09.2011 00:48 16,4 C 0,0 C 0,0 C 68 % 0 cb 1012,5 hPa 0,0 l/m 17,9 km/h (3 Bft) NW 315 0 min 0,000 mm 0 W/m 10,5 C 16,4 C 17,9 km/h (3 Bft) 0,00 %
07.09.2011 00:53 16,4 C 0,0 C 0,0 C 68 % 0 cb 1012,5 hPa 0,0 l/m 21,2 km/h (4 Bft) SO 135 0 min 0,000 mm 0 W/m 10,5 C 16,4 C 21,2 km/h (4 Bft) 0,00 %
07.09.2011 00:58 16,4 C 0,0 C 0,0 C 68 % 0 cb 1012,5 hPa 0,0 l/m 16,9 km/h (3 Bft) O 85 0 min 0,000 mm 0 W/m 10,5 C 16,4 C 16,9 km/h (3 Bft) 0,00 %
07.09.2011 01:03 16,4 C 0,0 C 0,0 C 68 % 0 cb 1012,5 hPa 0,0 l/m 21,8 km/h (4 Bft) N-NO 25 0 min 0,000 mm 0 W/m 10,5 C 16,4 C 21,8 km/h (4 Bft) 0,00 %
07.09.2011 01:08 16,4 C 0,0 C 0,0 C 68 % 0 cb 1012,5 hPa 0,0 l/m 23,3 km/h (4 Bft) SW 215 0 min 0,000 mm 0 W/m 10,5 C 16,4 C 23,3 km/h (4 Bft) 0,00 %
07.09.2011 01:13 16,4 C 0,0 C 0,0 C 69 % 0 cb 1012,5 hPa 0,0 l/m 12,4 km/h (3 Bft) W 270 0 min 0,000 mm 0 W/m 10,7 C 16,4 C 12,4 km/h (3 Bft) 0,00 %
07.09.2011 01:18 16,3 C 0,0 C 0,0 C 69 % 0 cb 1012,5 hPa 0,0 l/m 10,6 km/h (2 Bft) SO 140 0 min 0,000 mm 0 W/m 10,6 C 16,3 C 10,6 km/h (2 Bft) 0,00 %
07.09.2011 01:23 16,4 C 0,0 C 0,0 C 69 % 0 cb 1012,5 hPa 0,0 l/m 16,0 km/h (3 Bft) S 180 0 min 0,000 mm 0 W/m 10,7 C 16,4 C 16,0 km/h (3 Bft) 0,00 %
07.09.2011 01:28 16,3 C 0,0 C 0,0 C 69 % 0 cb 1012,5 hPa 0,0 l/m 16,6 km/h (3 Bft) SW 220 0 min 0,000 mm 0 W/m 10,6 C 16,3 C 16,6 km/h (3 Bft) 0,00 %
07.09.2011 01:33 16,3 C 0,0 C 0,0 C 69 % 0 cb 1012,5 hPa 0,0 l/m 21,2 km/h (4 Bft) S-SO 165 0 min 0,000 mm 0 W/m 10,6 C 16,3 C 21,2 km/h (4 Bft) 0,00 %
07.09.2011 01:38 16,2 C 0,0 C 0,0 C 69 % 0 cb 1011,5 hPa 0,0 l/m 12,7 km/h (3 Bft) S 190 0 min 0,000 mm 0 W/m 10,5 C 16,2 C 12,7 km/h (3 Bft) 0,00 %
07.09.2011 01:43 16,2 C 0,0 C 0,0 C 70 % 0 cb 1011,5 hPa 0,0 l/m 20,3 km/h (4 Bft) SW 215 0 min 0,000 mm 0 W/m 10,7 C 16,2 C 20,3 km/h (4 Bft) 0,00 %
07.09.2011 01:48 16,1 C 0,0 C 0,0 C 70 % 0 cb 1011,5 hPa 0,0 l/m 27,4 km/h (4 Bft) S-SW 200 0 min 0,000 mm 0 W/m 10,6 C 16,1 C 27,4 km/h (4 Bft) 0,00 %
07.09.2011 01:53 16,1 C 0,0 C 0,0 C 70 % 0 cb 1011,5 hPa 0,0 l/m 13,6 km/h (3 Bft) SW 215 0 min 0,000 mm 0 W/m 10,6 C 16,1 C 13,6 km/h (3 Bft) 0,00 %
07.09.2011 01:58 16,2 C 0,0 C 0,0 C 70 % 0 cb 1011,5 hPa 0,0 l/m 13,6 km/h (3 Bft) W 265 0 min 0,000 mm 0 W/m 10,7 C 16,2 C 13,6 km/h (3 Bft) 0,00 %
07.09.2011 02:03 16,0 C 0,0 C 0,0 C 71 % 0 cb 1011,5 hPa 0,0 l/m 21,8 km/h (4 Bft) S-SW 205 0 min 0,000 mm 0 W/m 10,7 C 16,0 C 21,8 km/h (4 Bft) 0,00 %
07.09.2011 02:08 15,9 C 0,0 C 0,0 C 72 % 0 cb 1011,5 hPa 0,0 l/m 20,0 km/h (4 Bft) SO 140 0 min 0,000 mm 0 W/m 10,9 C 15,9 C 20,0 km/h (4 Bft) 0,00 %
07.09.2011 02:13 16,0 C 0,0 C 0,0 C 71 % 0 cb 1011,5 hPa 0,0 l/m 20,3 km/h (4 Bft) S 185 0 min 0,000 mm 0 W/m 10,7 C 16,0 C 20,3 km/h (4 Bft) 0,00 %
07.09.2011 02:18 15,9 C 0,0 C 0,0 C 72 % 0 cb 1011,5 hPa 0,0 l/m 15,4 km/h (3 Bft) S-SW 205 0 min 0,000 mm 0 W/m 10,9 C 15,9 C 15,4 km/h (3 Bft) 0,00 %
07.09.2011 02:23 15,7 C 0,0 C 0,0 C 72 % 0 cb 1011,5 hPa 0,0 l/m 16,9 km/h (3 Bft) W 260 0 min 0,000 mm 0 W/m 10,7 C 15,7 C 16,9 km/h (3 Bft) 0,00 %
07.09.2011 02:28 15,5 C 0,0 C 0,0 C 74 % 0 cb 1011,5 hPa 0,0 l/m 13,3 km/h (3 Bft) S 170 0 min 0,000 mm 0 W/m 10,9 C 15,5 C 13,3 km/h (3 Bft) 0,00 %
07.09.2011 02:33 15,2 C 0,0 C 0,0 C 76 % 0 cb 1011,5 hPa 0,0 l/m 15,4 km/h (3 Bft) W-SW 240 0 min 0,000 mm 0 W/m 11,0 C 15,2 C 15,4 km/h (3 Bft) 0,00 %
07.09.2011 02:38 14,6 C 0,0 C 0,0 C 79 % 0 cb 1011,5 hPa 0,6 l/m 10,6 km/h (2 Bft) NW 315 0 min 0,000 mm 0 W/m 11,0 C 14,6 C 10,6 km/h (2 Bft) 0,00 %
07.09.2011 02:43 14,3 C 0,0 C 0,0 C 80 % 0 cb 1011,5 hPa 0,3 l/m 22,4 km/h (4 Bft) W 280 0 min 0,000 mm 0 W/m 10,9 C 14,3 C 22,4 km/h (4 Bft) 0,00 %
07.09.2011 02:48 14,0 C 0,0 C 0,0 C 82 % 0 cb 1011,5 hPa 0,6 l/m 14,8 km/h (3 Bft) W-SW 255 0 min 0,000 mm 0 W/m 11,0 C 14,0 C 14,8 km/h (3 Bft) 0,00 %
07.09.2011 02:53 13,8 C 0,0 C 0,0 C 83 % 0 cb 1011,5 hPa 0,3 l/m 8,5 km/h (2 Bft) N-NW 335 0 min 0,000 mm 0 W/m 11,0 C 13,8 C 8,5 km/h (2 Bft) 0,00 %
07.09.2011 02:58 13,8 C 0,0 C 0,0 C 84 % 0 cb 1011,5 hPa 0,6 l/m 5,7 km/h (1 Bft) SO 140 0 min 0,000 mm 0 W/m 11,1 C 13,8 C 5,7 km/h (1 Bft) 0,00 %
07.09.2011 03:03 13,7 C 0,0 C 0,0 C 84 % 0 cb 1011,5 hPa 0,3 l/m 11,5 km/h (2 Bft) W-NW 285 0 min 0,000 mm 0 W/m 11,0 C 13,7 C 11,5 km/h (2 Bft) 0,00 %
07.09.2011 03:08 13,6 C 0,0 C 0,0 C 85 % 0 cb 1011,5 hPa 0,6 l/m 8,8 km/h (2 Bft) O 100 0 min 0,000 mm 0 W/m 11,1 C 13,6 C 8,8 km/h (2 Bft) 0,00 %
07.09.2011 03:13 13,6 C 0,0 C 0,0 C 85 % 0 cb 1011,5 hPa 0,3 l/m 17,9 km/h (3 Bft) SW 230 0 min 0,000 mm 0 W/m 11,1 C 13,6 C 17,9 km/h (3 Bft) 0,00 %
07.09.2011 03:18 13,6 C 0,0 C 0,0 C 85 % 0 cb 1011,5 hPa 0,3 l/m 15,1 km/h (3 Bft) O-SO 105 0 min 0,000 mm 0 W/m 11,1 C 13,6 C 15,1 km/h (3 Bft) 0,00 %
07.09.2011 03:23 13,5 C 0,0 C 0,0 C 85 % 0 cb 1011,5 hPa 0,3 l/m 11,2 km/h (2 Bft) S 190 0 min 0,000 mm 0 W/m 11,0 C 13,5 C 11,2 km/h (2 Bft) 0,00 %
07.09.2011 03:28 13,5 C 0,0 C 0,0 C 85 % 0 cb 1011,5 hPa 0,3 l/m 15,4 km/h (3 Bft) N-NW 330 0 min 0,000 mm 0 W/m 11,0 C 13,5 C 15,4 km/h (3 Bft) 0,00 %
07.09.2011 03:33 13,4 C 0,0 C 0,0 C 85 % 0 cb 1011,5 hPa 0,3 l/m 19,4 km/h (3 Bft) W-NW 290 0 min 0,000 mm 0 W/m 10,9 C 13,4 C 19,4 km/h (3 Bft) 0,00 %
07.09.2011 03:38 13,5 C 0,0 C 0,0 C 85 % 0 cb 1011,5 hPa 0,0 l/m 12,1 km/h (2 Bft) NW 315 0 min 0,000 mm 0 W/m 11,0 C 13,5 C 12,1 km/h (2 Bft) 0,00 %
07.09.2011 03:43 13,5 C 0,0 C 0,0 C 85 % 0 cb 1011,5 hPa 0,0 l/m 14,2 km/h (3 Bft) S-SW 195 0 min 0,000 mm 0 W/m 11,0 C 13,5 C 14,2 km/h (3 Bft) 0,00 %
07.09.2011 03:48 13,4 C 0,0 C 0,0 C 86 % 0 cb 1011,5 hPa 0,3 l/m 14,2 km/h (3 Bft) W 280 0 min 0,000 mm 0 W/m 11,1 C 13,4 C 14,2 km/h (3 Bft) 0,00 %
07.09.2011 03:53 13,4 C 0,0 C 0,0 C 86 % 0 cb 1010,5 hPa 0,0 l/m 10,6 km/h (2 Bft) S-SW 195 0 min 0,000 mm 0 W/m 11,1 C 13,4 C 10,6 km/h (2 Bft) 0,00 %
07.09.2011 03:58 13,4 C 0,0 C 0,0 C 86 % 0 cb 1010,5 hPa 0,3 l/m 16,9 km/h (3 Bft) W 265 0 min 0,000 mm 0 W/m 11,1 C 13,4 C 16,9 km/h (3 Bft) 0,00 %
07.09.2011 04:03 13,4 C 0,0 C 0,0 C 86 % 0 cb 1010,5 hPa 0,0 l/m 14,8 km/h (3 Bft) S-SO 165 0 min 0,000 mm 0 W/m 11,1 C 13,4 C 14,8 km/h (3 Bft) 0,00 %
07.09.2011 04:08 13,4 C 0,0 C 0,0 C 86 % 0 cb 1010,5 hPa 0,3 l/m 21,5 km/h (4 Bft) S-SW 200 0 min 0,000 mm 0 W/m 11,1 C 13,4 C 21,5 km/h (4 Bft) 0,00 %
07.09.2011 04:13 13,4 C 0,0 C 0,0 C 86 % 0 cb 1010,5 hPa 0,0 l/m 8,5 km/h (2 Bft) S 180 0 min 0,000 mm 0 W/m 11,1 C 13,4 C 8,5 km/h (2 Bft) 0,00 %
07.09.2011 04:18 13,4 C 0,0 C 0,0 C 86 % 0 cb 1010,5 hPa 0,3 l/m 12,7 km/h (3 Bft) W-SW 240 0 min 0,000 mm 0 W/m 11,1 C 13,4 C 12,7 km/h (3 Bft) 0,00 %
07.09.2011 04:23 13,4 C 0,0 C 0,0 C 86 % 0 cb 1010,5 hPa 0,3 l/m 21,8 km/h (4 Bft) W 280 0 min 0,000 mm 0 W/m 11,1 C 13,4 C 21,8 km/h (4 Bft) 0,00 %
07.09.2011 04:28 13,4 C 0,0 C 0,0 C 86 % 0 cb 1010,5 hPa 0,3 l/m 16,9 km/h (3 Bft) W-SW 250 0 min 0,000 mm 0 W/m 11,1 C 13,4 C 16,9 km/h (3 Bft) 0,00 %
07.09.2011 04:33 13,4 C 0,0 C 0,0 C 86 % 0 cb 1010,5 hPa 0,0 l/m 12,7 km/h (3 Bft) S-SO 160 0 min 0,000 mm 0 W/m 11,1 C 13,4 C 12,7 km/h (3 Bft) 0,00 %
07.09.2011 04:38 13,4 C 0,0 C 0,0 C 86 % 0 cb 1010,5 hPa 0,0 l/m 19,7 km/h (3 Bft) W-SW 245 0 min 0,000 mm 0 W/m 11,1 C 13,4 C 19,7 km/h (3 Bft) 0,00 %
07.09.2011 04:43 13,4 C 0,0 C 0,0 C 86 % 0 cb 1010,5 hPa 0,0 l/m 19,1 km/h (3 Bft) W-NW 285 0 min 0,000 mm 0 W/m 11,1 C 13,4 C 19,1 km/h (3 Bft) 0,00 %
07.09.2011 04:48 13,4 C 0,0 C 0,0 C 86 % 0 cb 1010,5 hPa 0,0 l/m 16,6 km/h (3 Bft) S 170 0 min 0,000 mm 0 W/m 11,1 C 13,4 C 16,6 km/h (3 Bft) 0,00 %
07.09.2011 04:53 13,4 C 0,0 C 0,0 C 86 % 0 cb 1010,5 hPa 0,3 l/m 23,3 km/h (4 Bft) S 175 0 min 0,000 mm 0 W/m 11,1 C 13,4 C 23,3 km/h (4 Bft) 0,00 %
07.09.2011 04:58 13,4 C 0,0 C 0,0 C 86 % 0 cb 1010,5 hPa 0,3 l/m 14,5 km/h (3 Bft) S-SW 210 0 min 0,000 mm 0 W/m 11,1 C 13,4 C 14,5 km/h (3 Bft) 0,00 %
07.09.2011 05:03 13,4 C 0,0 C 0,0 C 86 % 0 cb 1010,5 hPa 0,3 l/m 16,9 km/h (3 Bft) W-SW 255 0 min 0,000 mm 0 W/m 11,1 C 13,4 C 16,9 km/h (3 Bft) 0,00 %
07.09.2011 05:08 13,4 C 0,0 C 0,0 C 86 % 0 cb 1010,5 hPa 0,0 l/m 14,5 km/h (3 Bft) SW 230 0 min 0,000 mm 0 W/m 11,1 C 13,4 C 14,5 km/h (3 Bft) 0,00 %
07.09.2011 05:13 13,3 C 0,0 C 0,0 C 86 % 0 cb 1010,5 hPa 0,3 l/m 13,6 km/h (3 Bft) W-NW 295 0 min 0,000 mm 0 W/m 11,0 C 13,3 C 13,6 km/h (3 Bft) 0,00 %
07.09.2011 05:18 13,4 C 0,0 C 0,0 C 86 % 0 cb 1010,5 hPa 0,0 l/m 15,7 km/h (3 Bft) S-SW 205 0 min 0,000 mm 0 W/m 11,1 C 13,4 C 15,7 km/h (3 Bft) 0,00 %
07.09.2011 05:23 13,4 C 0,0 C 0,0 C 86 % 0 cb 1010,5 hPa 0,0 l/m 15,1 km/h (3 Bft) NW 320 0 min 0,000 mm 0 W/m 11,1 C 13,4 C 15,1 km/h (3 Bft) 0,00 %
07.09.2011 05:28 13,4 C 0,0 C 0,0 C 86 % 0 cb 1010,5 hPa 0,0 l/m 13,9 km/h (3 Bft) S-SW 200 0 min 0,000 mm 0 W/m 11,1 C 13,4 C 13,9 km/h (3 Bft) 0,00 %
07.09.2011 05:33 13,3 C 0,0 C 0,0 C 87 % 0 cb 1010,5 hPa 0,3 l/m 15,4 km/h (3 Bft) SW 215 0 min 0,000 mm 0 W/m 11,2 C 13,3 C 15,4 km/h (3 Bft) 0,00 %
07.09.2011 05:38 13,3 C 0,0 C 0,0 C 87 % 0 cb 1010,5 hPa 0,0 l/m 12,1 km/h (2 Bft) O 90 0 min 0,000 mm 0 W/m 11,2 C 13,3 C 12,1 km/h (2 Bft) 0,00 %
07.09.2011 05:43 13,3 C 0,0 C 0,0 C 87 % 0 cb 1010,5 hPa 0,0 l/m 11,2 km/h (2 Bft) S-SO 155 0 min 0,000 mm 0 W/m 11,2 C 13,3 C 11,2 km/h (2 Bft) 0,00 %
07.09.2011 05:48 13,3 C 0,0 C 0,0 C 87 % 0 cb 1010,5 hPa 0,3 l/m 18,5 km/h (3 Bft) W-SW 240 0 min 0,000 mm 0 W/m 11,2 C 13,3 C 18,5 km/h (3 Bft) 0,00 %
07.09.2011 05:53 13,4 C 0,0 C 0,0 C 87 % 0 cb 1010,5 hPa 0,0 l/m 17,6 km/h (3 Bft) S-SO 160 0 min 0,000 mm 0 W/m 11,3 C 13,4 C 17,6 km/h (3 Bft) 0,00 %
07.09.2011 05:58 13,4 C 0,0 C 0,0 C 87 % 0 cb 1010,5 hPa 0,0 l/m 15,4 km/h (3 Bft) SW 215 0 min 0,000 mm 0 W/m 11,3 C 13,4 C 15,4 km/h (3 Bft) 0,00 %
07.09.2011 06:03 13,4 C 0,0 C 0,0 C 87 % 0 cb 1010,5 hPa 0,0 l/m 15,1 km/h (3 Bft) N 10 0 min 0,000 mm 0 W/m 11,3 C 13,4 C 15,1 km/h (3 Bft) 0,00 %
07.09.2011 06:08 13,4 C 0,0 C 0,0 C 87 % 0 cb 1010,5 hPa 0,3 l/m 15,4 km/h (3 Bft) SW 220 0 min 0,000 mm 0 W/m 11,3 C 13,4 C 15,4 km/h (3 Bft) 0,00 %
07.09.2011 06:13 13,4 C 0,0 C 0,0 C 87 % 0 cb 1010,5 hPa 0,0 l/m 17,2 km/h (3 Bft) N-NW 335 0 min 0,000 mm 0 W/m 11,3 C 13,4 C 17,2 km/h (3 Bft) 0,00 %
07.09.2011 06:18 13,4 C 0,0 C 0,0 C 87 % 0 cb 1010,5 hPa 0,0 l/m 18,2 km/h (3 Bft) S 190 0 min 0,000 mm 0 W/m 11,3 C 13,4 C 18,2 km/h (3 Bft) 0,00 %
07.09.2011 06:23 13,4 C 0,0 C 0,0 C 87 % 0 cb 1010,5 hPa 0,0 l/m 11,2 km/h (2 Bft) SW 225 0 min 0,000 mm 0 W/m 11,3 C 13,4 C 11,2 km/h (2 Bft) 0,00 %
07.09.2011 06:28 13,5 C 0,0 C 0,0 C 87 % 0 cb 1010,5 hPa 0,6 l/m 14,5 km/h (3 Bft) W 280 0 min 0,000 mm 0 W/m 11,4 C 13,5 C 14,5 km/h (3 Bft) 0,00 %
07.09.2011 06:33 13,4 C 0,0 C 0,0 C 87 % 0 cb 1010,5 hPa 0,0 l/m 11,8 km/h (2 Bft) NW 305 0 min 0,000 mm 0 W/m 11,3 C 13,4 C 11,8 km/h (2 Bft) 0,00 %
07.09.2011 06:38 13,4 C 0,0 C 0,0 C 87 % 0 cb 1010,5 hPa 0,3 l/m 16,9 km/h (3 Bft) N-NW 345 0 min 0,000 mm 0 W/m 11,3 C 13,4 C 16,9 km/h (3 Bft) 0,00 %
07.09.2011 06:43 13,5 C 0,0 C 0,0 C 87 % 0 cb 1010,5 hPa 0,0 l/m 15,7 km/h (3 Bft) W 280 0 min 0,000 mm 0 W/m 11,4 C 13,5 C 15,7 km/h (3 Bft) 0,00 %
07.09.2011 06:48 13,5 C 0,0 C 0,0 C 87 % 0 cb 1010,5 hPa 0,0 l/m 15,4 km/h (3 Bft) SW 235 0 min 0,000 mm 0 W/m 11,4 C 13,5 C 15,4 km/h (3 Bft) 0,00 %
07.09.2011 06:53 13,4 C 0,0 C 0,0 C 87 % 0 cb 1010,5 hPa 0,0 l/m 14,5 km/h (3 Bft) O 85 0 min 0,000 mm 0 W/m 11,3 C 13,4 C 14,5 km/h (3 Bft) 0,00 %
07.09.2011 06:58 13,6 C 0,0 C 0,0 C 87 % 0 cb 1010,5 hPa 0,3 l/m 23,6 km/h (4 Bft) SW 230 0 min 0,000 mm 0 W/m 11,5 C 13,6 C 23,6 km/h (4 Bft) 0,00 %
07.09.2011 07:03 12,9 C 0,0 C 0,0 C 87 % 0 cb 1010,5 hPa 0,6 l/m 20,6 km/h (4 Bft) W-SW 245 0 min 0,000 mm 0 W/m 10,8 C 12,9 C 20,6 km/h (4 Bft) 0,00 %
07.09.2011 07:08 12,2 C 0,0 C 0,0 C 86 % 0 cb 1011,5 hPa 0,3 l/m 27,4 km/h (4 Bft) W-SW 250 0 min 0,000 mm 0 W/m 9,9 C 12,2 C 27,4 km/h (4 Bft) 0,00 %
07.09.2011 07:13 12,0 C 0,0 C 0,0 C 86 % 0 cb 1011,5 hPa 0,0 l/m 18,5 km/h (3 Bft) S-SW 205 0 min 0,000 mm 0 W/m 9,7 C 12,0 C 18,5 km/h (3 Bft) 0,00 %
07.09.2011 07:18 11,7 C 0,0 C 0,0 C 85 % 0 cb 1011,5 hPa 0,0 l/m 17,6 km/h (3 Bft) W 260 0 min 0,000 mm 0 W/m 9,3 C 11,7 C 17,6 km/h (3 Bft) 0,00 %
07.09.2011 07:23 11,7 C 0,0 C 0,0 C 85 % 0 cb 1011,5 hPa 0,0 l/m 27,1 km/h (4 Bft) W 275 0 min 0,000 mm 0 W/m 9,3 C 11,7 C 27,1 km/h (4 Bft) 0,00 %
07.09.2011 07:28 11,4 C 0,0 C 0,0 C 84 % 0 cb 1011,5 hPa 0,0 l/m 15,4 km/h (3 Bft) NW 305 0 min 0,000 mm 0 W/m 8,8 C 11,4 C 15,4 km/h (3 Bft) 0,00 %
07.09.2011 07:33 11,3 C 0,0 C 0,0 C 85 % 0 cb 1011,5 hPa 0,0 l/m 21,5 km/h (4 Bft) W-SW 245 0 min 0,000 mm 0 W/m 8,9 C 11,3 C 21,5 km/h (4 Bft) 0,00 %
07.09.2011 07:38 11,1 C 0,0 C 0,0 C 85 % 0 cb 1012,5 hPa 0,0 l/m 12,7 km/h (3 Bft) W 265 0 min 0,000 mm 0 W/m 8,7 C 11,1 C 12,7 km/h (3 Bft) 0,00 %
07.09.2011 07:43 11,1 C 0,0 C 0,0 C 86 % 0 cb 1012,5 hPa 0,0 l/m 12,1 km/h (2 Bft) N 350 0 min 0,000 mm 0 W/m 8,8 C 11,1 C 12,1 km/h (2 Bft) 0,00 %
07.09.2011 07:48 11,0 C 0,0 C 0,0 C 86 % 0 cb 1012,5 hPa 0,3 l/m 13,0 km/h (3 Bft) W 265 0 min 0,000 mm 0 W/m 8,7 C 11,0 C 13,0 km/h (3 Bft) 0,00 %
07.09.2011 07:53 11,0 C 0,0 C 0,0 C 86 % 0 cb 1011,5 hPa 0,0 l/m 13,9 km/h (3 Bft) W 265 0 min 0,000 mm 0 W/m 8,7 C 11,0 C 13,9 km/h (3 Bft) 0,00 %
07.09.2011 07:58 11,0 C 0,0 C 0,0 C 86 % 0 cb 1011,5 hPa 0,0 l/m 11,5 km/h (2 Bft) W-NW 285 0 min 0,000 mm 0 W/m 8,7 C 11,0 C 11,5 km/h (2 Bft) 0,00 %
07.09.2011 08:03 11,0 C 0,0 C 0,0 C 86 % 0 cb 1011,5 hPa 0,0 l/m 15,4 km/h (3 Bft) W 275 0 min 0,000 mm 0 W/m 8,7 C 11,0 C 15,4 km/h (3 Bft) 0,00 %
07.09.2011 08:08 11,1 C 0,0 C 0,0 C 86 % 0 cb 1011,5 hPa 0,0 l/m 14,5 km/h (3 Bft) W 260 0 min 0,000 mm 0 W/m 8,8 C 11,1 C 14,5 km/h (3 Bft) 0,00 %
07.09.2011 08:13 11,1 C 0,0 C 0,0 C 86 % 0 cb 1011,5 hPa 0,0 l/m 12,1 km/h (2 Bft) N-NO 25 0 min 0,000 mm 0 W/m 8,8 C 11,1 C 12,1 km/h (2 Bft) 0,00 %
07.09.2011 08:19 11,1 C 0,0 C 0,0 C 86 % 0 cb 1011,5 hPa 0,0 l/m 18,2 km/h (3 Bft) SW 220 0 min 0,000 mm 0 W/m 8,8 C 11,1 C 18,2 km/h (3 Bft) 0,00 %
07.09.2011 08:23 11,2 C 0,0 C 0,0 C 86 % 0 cb 1011,5 hPa 0,0 l/m 13,3 km/h (3 Bft) W 265 0 min 0,000 mm 0 W/m 8,9 C 11,2 C 13,3 km/h (3 Bft) 0,00 %
07.09.2011 08:28 11,2 C 0,0 C 0,0 C 86 % 0 cb 1011,5 hPa 0,0 l/m 14,2 km/h (3 Bft) W-SW 240 0 min 0,000 mm 0 W/m 8,9 C 11,2 C 14,2 km/h (3 Bft) 0,00 %
07.09.2011 08:33 11,3 C 0,0 C 0,0 C 86 % 0 cb 1011,5 hPa 0,0 l/m 7,9 km/h (2 Bft) W-NW 300 0 min 0,000 mm 0 W/m 9,0 C 11,3 C 7,9 km/h (2 Bft) 0,00 %
07.09.2011 08:38 11,3 C 0,0 C 0,0 C 86 % 0 cb 1012,5 hPa 0,0 l/m 12,1 km/h (2 Bft) SW 235 0 min 0,000 mm 0 W/m 9,0 C 11,3 C 12,1 km/h (2 Bft) 0,00 %
07.09.2011 08:43 11,3 C 0,0 C 0,0 C 86 % 0 cb 1012,5 hPa 0,0 l/m 13,9 km/h (3 Bft) W 275 0 min 0,000 mm 0 W/m 9,0 C 11,3 C 13,9 km/h (3 Bft) 0,00 %
07.09.2011 08:48 11,3 C 0,0 C 0,0 C 86 % 0 cb 1012,5 hPa 0,0 l/m 18,2 km/h (3 Bft) W 265 0 min 0,000 mm 0 W/m 9,0 C 11,3 C 18,2 km/h (3 Bft) 0,00 %
07.09.2011 08:53 11,4 C 0,0 C 0,0 C 86 % 0 cb 1012,5 hPa 0,0 l/m 12,7 km/h (3 Bft) W 275 0 min 0,000 mm 0 W/m 9,1 C 11,4 C 12,7 km/h (3 Bft) 0,00 %
07.09.2011 08:58 11,5 C 0,0 C 0,0 C 86 % 0 cb 1012,5 hPa 0,0 l/m 12,7 km/h (3 Bft) NW 305 0 min 0,000 mm 0 W/m 9,2 C 11,5 C 12,7 km/h (3 Bft) 0,00 %
07.09.2011 09:04 11,6 C 0,0 C 0,0 C 86 % 0 cb 1012,5 hPa 0,0 l/m 9,4 km/h (2 Bft) W-SW 250 0 min 0,000 mm 0 W/m 9,3 C 11,6 C 9,4 km/h (2 Bft) 0,00 %
07.09.2011 09:09 11,7 C 0,0 C 0,0 C 86 % 0 cb 1012,5 hPa 0,0 l/m 11,2 km/h (2 Bft) SW 230 0 min 0,000 mm 0 W/m 9,4 C 11,7 C 11,2 km/h (2 Bft) 0,00 %
07.09.2011 09:13 11,8 C 0,0 C 0,0 C 85 % 0 cb 1012,5 hPa 0,0 l/m 12,4 km/h (3 Bft) S 190 0 min 0,000 mm 0 W/m 9,4 C 11,8 C 12,4 km/h (3 Bft) 0,00 %
07.09.2011 09:18 11,8 C 0,0 C 0,0 C 85 % 0 cb 1012,5 hPa 0,0 l/m 19,1 km/h (3 Bft) W-SW 255 0 min 0,000 mm 0 W/m 9,4 C 11,8 C 19,1 km/h (3 Bft) 0,00 %
07.09.2011 09:23 11,8 C 0,0 C 0,0 C 84 % 0 cb 1012,5 hPa 0,0 l/m 11,5 km/h (2 Bft) W 260 0 min 0,000 mm 0 W/m 9,2 C 11,8 C 11,5 km/h (2 Bft) 0,00 %
07.09.2011 09:28 11,9 C 0,0 C 0,0 C 84 % 0 cb 1012,5 hPa 0,0 l/m 9,4 km/h (2 Bft) N 350 0 min 0,000 mm 0 W/m 9,3 C 11,9 C 9,4 km/h (2 Bft) 0,00 %
07.09.2011 09:33 12,0 C 0,0 C 0,0 C 84 % 0 cb 1012,5 hPa 0,0 l/m 15,7 km/h (3 Bft) W 260 0 min 0,000 mm 0 W/m 9,4 C 12,0 C 15,7 km/h (3 Bft) 0,00 %
07.09.2011 09:38 12,1 C 0,0 C 0,0 C 84 % 0 cb 1012,5 hPa 0,0 l/m 9,1 km/h (2 Bft) NW 325 0 min 0,000 mm 0 W/m 9,5 C 12,1 C 9,1 km/h (2 Bft) 0,00 %
07.09.2011 09:43 12,1 C 0,0 C 0,0 C 83 % 0 cb 1012,5 hPa 0,0 l/m 15,7 km/h (3 Bft) SW 235 0 min 0,000 mm 0 W/m 9,3 C 12,1 C 15,7 km/h (3 Bft) 0,00 %
07.09.2011 09:48 12,0 C 0,0 C 0,0 C 83 % 0 cb 1012,5 hPa 0,0 l/m 13,6 km/h (3 Bft) W 275 0 min 0,000 mm 0 W/m 9,2 C 12,0 C 13,6 km/h (3 Bft) 0,00 %
07.09.2011 09:53 12,2 C 0,0 C 0,0 C 83 % 0 cb 1013,5 hPa 0,0 l/m 9,4 km/h (2 Bft) W-SW 240 0 min 0,000 mm 0 W/m 9,4 C 12,2 C 9,4 km/h (2 Bft) 0,00 %
07.09.2011 09:58 12,2 C 0,0 C 0,0 C 83 % 0 cb 1013,5 hPa 0,0 l/m 9,1 km/h (2 Bft) W 270 0 min 0,000 mm 0 W/m 9,4 C 12,2 C 9,1 km/h (2 Bft) 0,00 %
07.09.2011 10:03 12,4 C 0,0 C 0,0 C 83 % 0 cb 1013,5 hPa 0,0 l/m 12,4 km/h (3 Bft) SO 135 0 min 0,000 mm 0 W/m 9,6 C 12,4 C 12,4 km/h (3 Bft) 0,00 %
07.09.2011 10:08 12,5 C 0,0 C 0,0 C 82 % 0 cb 1013,5 hPa 0,0 l/m 10,3 km/h (2 Bft) W 265 0 min 0,000 mm 0 W/m 9,5 C 12,5 C 10,3 km/h (2 Bft) 0,00 %
07.09.2011 10:14 12,7 C 0,0 C 0,0 C 81 % 2 cb 1013,5 hPa 0,0 l/m 9,7 km/h (2 Bft) SW 230 0 min 0,000 mm 0 W/m 9,5 C 12,7 C 9,7 km/h (2 Bft) 0,00 %
07.09.2011 10:19 12,9 C 0,0 C 0,0 C 81 % 4 cb 1013,5 hPa 0,0 l/m 10,3 km/h (2 Bft) SW 230 0 min 0,000 mm 0 W/m 9,7 C 12,9 C 10,3 km/h (2 Bft) 0,00 %
07.09.2011 10:24 12,9 C 0,0 C 0,0 C 80 % 1 cb 1013,5 hPa 0,0 l/m 10,3 km/h (2 Bft) W 275 0 min 0,000 mm 0 W/m 9,5 C 12,9 C 10,3 km/h (2 Bft) 0,00 %
07.09.2011 10:29 12,7 C 0,0 C 0,0 C 81 % 0 cb 1013,5 hPa 0,0 l/m 13,6 km/h (3 Bft) W 265 0 min 0,000 mm 0 W/m 9,5 C 12,7 C 13,6 km/h (3 Bft) 0,00 %
07.09.2011 10:34 12,8 C 0,0 C 0,0 C 80 % 1 cb 1013,5 hPa 0,0 l/m 13,3 km/h (3 Bft) SW 235 0 min 0,000 mm 0 W/m 9,4 C 12,8 C 13,3 km/h (3 Bft) 0,00 %
07.09.2011 10:39 13,0 C 0,0 C 0,0 C 80 % 1 cb 1013,5 hPa 0,0 l/m 9,4 km/h (2 Bft) W 260 0 min 0,000 mm 0 W/m 9,6 C 13,0 C 9,4 km/h (2 Bft) 0,00 %
07.09.2011 10:44 13,4 C 0,0 C 0,0 C 79 % 4 cb 1013,5 hPa 0,0 l/m 13,9 km/h (3 Bft) N 0 0 min 0,000 mm 0 W/m 9,8 C 13,4 C 13,9 km/h (3 Bft) 0,00 %
07.09.2011 10:49 13,6 C 0,0 C 0,0 C 79 % 4 cb 1013,5 hPa 0,0 l/m 10,0 km/h (2 Bft) SW 235 0 min 0,000 mm 0 W/m 10,0 C 13,6 C 10,0 km/h (2 Bft) 0,00 %
07.09.2011 10:54 14,0 C 0,0 C 0,0 C 78 % 5 cb 1014,5 hPa 0,0 l/m 9,7 km/h (2 Bft) W 270 0 min 0,000 mm 0 W/m 10,2 C 14,0 C 9,7 km/h (2 Bft) 0,00 %
07.09.2011 10:59 14,0 C 0,0 C 0,0 C 77 % 4 cb 1014,5 hPa 0,0 l/m 12,7 km/h (3 Bft) W 280 0 min 0,000 mm 0 W/m 10,0 C 14,0 C 12,7 km/h (3 Bft) 0,00 %
07.09.2011 11:04 13,6 C 0,0 C 0,0 C 77 % 4 cb 1014,5 hPa 0,0 l/m 17,2 km/h (3 Bft) W-NW 295 0 min 0,000 mm 0 W/m 9,6 C 13,6 C 17,2 km/h (3 Bft) 0,00 %
07.09.2011 11:09 13,9 C 0,0 C 0,0 C 77 % 5 cb 1013,5 hPa 0,0 l/m 20,6 km/h (4 Bft) W 265 0 min 0,000 mm 0 W/m 9,9 C 13,9 C 20,6 km/h (4 Bft) 0,00 %
07.09.2011 11:14 13,8 C 0,0 C 0,0 C 76 % 5 cb 1013,5 hPa 0,0 l/m 22,4 km/h (4 Bft) W-SW 240 0 min 0,000 mm 0 W/m 9,6 C 13,8 C 22,4 km/h (4 Bft) 0,00 %
07.09.2011 11:19 14,0 C 0,0 C 0,0 C 76 % 5 cb 1013,5 hPa 0,0 l/m 23,0 km/h (4 Bft) W-NW 300 0 min 0,000 mm 0 W/m 9,8 C 14,0 C 23,0 km/h (4 Bft) 0,00 %
07.09.2011 11:24 14,4 C 0,0 C 0,0 C 75 % 5 cb 1013,5 hPa 0,0 l/m 12,4 km/h (3 Bft) O 100 0 min 0,000 mm 0 W/m 10,0 C 14,4 C 12,4 km/h (3 Bft) 0,00 %
07.09.2011 11:29 14,7 C 0,0 C 0,0 C 75 % 4 cb 1013,5 hPa 0,0 l/m 11,8 km/h (2 Bft) S-SW 200 0 min 0,000 mm 0 W/m 10,3 C 14,7 C 11,8 km/h (2 Bft) 0,00 %
07.09.2011 11:34 14,7 C 0,0 C 0,0 C 73 % 6 cb 1013,5 hPa 0,0 l/m 16,9 km/h (3 Bft) W 265 0 min 0,000 mm 0 W/m 9,9 C 14,7 C 16,9 km/h (3 Bft) 0,00 %
07.09.2011 11:39 14,3 C 0,0 C 0,0 C 72 % 5 cb 1013,5 hPa 0,0 l/m 21,8 km/h (4 Bft) W 265 0 min 0,000 mm 0 W/m 9,3 C 14,3 C 21,8 km/h (4 Bft) 0,00 %
07.09.2011 11:44 14,3 C 0,0 C 0,0 C 74 % 4 cb 1013,5 hPa 0,0 l/m 14,8 km/h (3 Bft) NW 315 0 min 0,000 mm 0 W/m 9,7 C 14,3 C 14,8 km/h (3 Bft) 0,00 %
07.09.2011 11:49 14,2 C 0,0 C 0,0 C 72 % 3 cb 1013,5 hPa 0,0 l/m 17,2 km/h (3 Bft) SW 215 0 min 0,000 mm 0 W/m 9,2 C 14,2 C 17,2 km/h (3 Bft) 0,00 %
07.09.2011 11:54 14,0 C 0,0 C 0,0 C 73 % 2 cb 1013,5 hPa 0,0 l/m 15,4 km/h (3 Bft) W-SW 255 0 min 0,000 mm 0 W/m 9,2 C 14,0 C 15,4 km/h (3 Bft) 0,00 %
07.09.2011 11:59 14,7 C 0,0 C 0,0 C 74 % 4 cb 1013,5 hPa 0,0 l/m 11,2 km/h (2 Bft) W 275 0 min 0,000 mm 0 W/m 10,1 C 14,7 C 11,2 km/h (2 Bft) 0,00 %
07.09.2011 12:04 14,6 C 0,0 C 0,0 C 74 % 5 cb 1013,5 hPa 0,0 l/m 13,6 km/h (3 Bft) SW 230 0 min 0,000 mm 0 W/m 10,0 C 14,6 C 13,6 km/h (3 Bft) 0,00 %
07.09.2011 12:09 14,5 C 0,0 C 0,0 C 74 % 2 cb 1013,5 hPa 0,0 l/m 9,7 km/h (2 Bft) SW 220 0 min 0,000 mm 0 W/m 9,9 C 14,5 C 9,7 km/h (2 Bft) 0,00 %
07.09.2011 12:14 14,4 C 0,0 C 0,0 C 74 % 3 cb 1013,5 hPa 0,0 l/m 10,3 km/h (2 Bft) W-NW 290 0 min 0,000 mm 0 W/m 9,8 C 14,4 C 10,3 km/h (2 Bft) 0,00 %
07.09.2011 12:19 14,6 C 0,0 C 0,0 C 72 % 5 cb 1013,5 hPa 0,0 l/m 18,2 km/h (3 Bft) NW 310 0 min 0,000 mm 0 W/m 9,6 C 14,6 C 18,2 km/h (3 Bft) 0,00 %
07.09.2011 12:24 14,6 C 0,0 C 0,0 C 71 % 5 cb 1013,5 hPa 0,0 l/m 19,7 km/h (3 Bft) S 185 0 min 0,000 mm 0 W/m 9,4 C 14,6 C 19,7 km/h (3 Bft) 0,00 %
07.09.2011 12:29 14,6 C 0,0 C 0,0 C 70 % 5 cb 1013,5 hPa 0,0 l/m 23,0 km/h (4 Bft) W-SW 250 0 min 0,000 mm 0 W/m 9,2 C 14,6 C 23,0 km/h (4 Bft) 0,00 %
07.09.2011 12:34 14,7 C 0,0 C 0,0 C 70 % 5 cb 1013,5 hPa 0,0 l/m 23,6 km/h (4 Bft) W-SW 255 0 min 0,000 mm 0 W/m 9,3 C 14,7 C 23,6 km/h (4 Bft) 0,00 %
07.09.2011 12:39 15,2 C 0,0 C 0,0 C 70 % 6 cb 1014,5 hPa 0,0 l/m 15,4 km/h (3 Bft) O-SO 115 0 min 0,000 mm 0 W/m 9,8 C 15,2 C 15,4 km/h (3 Bft) 0,00 %
07.09.2011 12:44 15,4 C 0,0 C 0,0 C 68 % 5 cb 1014,5 hPa 0,0 l/m 14,5 km/h (3 Bft) N 0 0 min 0,000 mm 0 W/m 9,5 C 15,4 C 14,5 km/h (3 Bft) 0,00 %
07.09.2011 12:49 15,0 C 0,0 C 0,0 C 69 % 5 cb 1014,5 hPa 0,0 l/m 19,1 km/h (3 Bft) N 5 0 min 0,000 mm 0 W/m 9,4 C 15,0 C 19,1 km/h (3 Bft) 0,00 %
07.09.2011 12:54 15,0 C 0,0 C 0,0 C 68 % 5 cb 1013,5 hPa 0,0 l/m 18,8 km/h (3 Bft) SW 215 0 min 0,000 mm 0 W/m 9,1 C 15,0 C 18,8 km/h (3 Bft) 0,00 %
07.09.2011 12:59 15,5 C 0,0 C 0,0 C 68 % 5 cb 1013,5 hPa 0,0 l/m 15,7 km/h (3 Bft) W-SW 245 0 min 0,000 mm 0 W/m 9,6 C 15,5 C 15,7 km/h (3 Bft) 0,00 %
07.09.2011 13:04 15,4 C 0,0 C 0,0 C 68 % 3 cb 1013,5 hPa 0,0 l/m 12,1 km/h (2 Bft) SW 215 0 min 0,000 mm 0 W/m 9,5 C 15,4 C 12,1 km/h (2 Bft) 0,00 %
07.09.2011 13:09 15,2 C 0,0 C 0,0 C 67 % 7 cb 1013,5 hPa 0,0 l/m 15,1 km/h (3 Bft) W-NW 295 0 min 0,000 mm 0 W/m 9,1 C 15,2 C 15,1 km/h (3 Bft) 0,00 %
07.09.2011 13:14 15,3 C 0,0 C 0,0 C 67 % 5 cb 1013,5 hPa 0,0 l/m 12,7 km/h (3 Bft) W-NW 300 0 min 0,000 mm 0 W/m 9,2 C 15,3 C 12,7 km/h (3 Bft) 0,00 %
07.09.2011 13:19 15,3 C 0,0 C 0,0 C 67 % 5 cb 1013,5 hPa 0,0 l/m 21,8 km/h (4 Bft) W 270 0 min 0,000 mm 0 W/m 9,2 C 15,3 C 21,8 km/h (4 Bft) 0,00 %
07.09.2011 13:24 15,7 C 0,0 C 0,0 C 67 % 3 cb 1013,5 hPa 0,0 l/m 16,6 km/h (3 Bft) W 280 0 min 0,000 mm 0 W/m 9,6 C 15,7 C 16,6 km/h (3 Bft) 0,00 %
07.09.2011 13:29 15,4 C 0,0 C 0,0 C 66 % 7 cb 1013,5 hPa 0,0 l/m 20,0 km/h (4 Bft) W-SW 250 0 min 0,000 mm 0 W/m 9,1 C 15,4 C 20,0 km/h (4 Bft) 0,00 %
07.09.2011 13:34 15,0 C 0,0 C 0,0 C 67 % 2 cb 1013,5 hPa 0,0 l/m 21,2 km/h (4 Bft) S-SW 205 0 min 0,000 mm 0 W/m 8,9 C 15,0 C 21,2 km/h (4 Bft) 0,00 %
07.09.2011 13:39 15,3 C 0,0 C 0,0 C 68 % 5 cb 1013,5 hPa 0,0 l/m 10,0 km/h (2 Bft) W 265 0 min 0,000 mm 0 W/m 9,4 C 15,3 C 10,0 km/h (2 Bft) 0,00 %
07.09.2011 13:44 15,4 C 0,0 C 0,0 C 67 % 5 cb 1013,5 hPa 0,0 l/m 14,5 km/h (3 Bft) W-SW 255 0 min 0,000 mm 0 W/m 9,3 C 15,4 C 14,5 km/h (3 Bft) 0,00 %
07.09.2011 13:49 15,6 C 0,0 C 0,0 C 66 % 3 cb 1013,5 hPa 0,0 l/m 10,0 km/h (2 Bft) N-NW 340 0 min 0,000 mm 0 W/m 9,3 C 15,6 C 10,0 km/h (2 Bft) 0,00 %
07.09.2011 13:54 15,7 C 0,0 C 0,0 C 66 % 4 cb 1013,5 hPa 0,0 l/m 14,5 km/h (3 Bft) W 280 0 min 0,000 mm 0 W/m 9,4 C 15,7 C 14,5 km/h (3 Bft) 0,00 %
07.09.2011 13:59 15,5 C 0,0 C 0,0 C 66 % 3 cb 1013,5 hPa 0,0 l/m 15,4 km/h (3 Bft) W 280 0 min 0,000 mm 0 W/m 9,2 C 15,5 C 15,4 km/h (3 Bft) 0,00 %
07.09.2011 14:04 16,0 C 0,0 C 0,0 C 63 % 5 cb 1013,5 hPa 0,0 l/m 16,3 km/h (3 Bft) NW 320 0 min 0,000 mm 0 W/m 9,0 C 16,0 C 16,3 km/h (3 Bft) 0,00 %
07.09.2011 14:09 15,7 C 0,0 C 0,0 C 62 % 6 cb 1013,5 hPa 0,0 l/m 29,0 km/h (5 Bft) W 270 0 min 0,000 mm 0 W/m 8,4 C 15,7 C 29,0 km/h (5 Bft) 0,00 %
07.09.2011 14:14 15,9 C 0,0 C 0,0 C 61 % 5 cb 1013,5 hPa 0,0 l/m 23,6 km/h (4 Bft) W-SW 240 0 min 0,000 mm 0 W/m 8,4 C 15,9 C 23,6 km/h (4 Bft) 0,00 %
07.09.2011 14:19 16,0 C 0,0 C 0,0 C 61 % 5 cb 1013,5 hPa 0,0 l/m 18,2 km/h (3 Bft) W-NW 290 0 min 0,000 mm 0 W/m 8,5 C 16,0 C 18,2 km/h (3 Bft) 0,00 %
07.09.2011 14:24 15,9 C 0,0 C 0,0 C 61 % 6 cb 1013,5 hPa 0,0 l/m 17,6 km/h (3 Bft) W 275 0 min 0,000 mm 0 W/m 8,4 C 15,9 C 17,6 km/h (3 Bft) 0,00 %
07.09.2011 14:29 15,9 C 0,0 C 0,0 C 62 % 4 cb 1013,5 hPa 0,0 l/m 20,6 km/h (4 Bft) W 265 0 min 0,000 mm 0 W/m 8,6 C 15,9 C 20,6 km/h (4 Bft) 0,00 %
07.09.2011 14:34 16,0 C 0,0 C 0,0 C 63 % 4 cb 1013,5 hPa 0,0 l/m 15,1 km/h (3 Bft) NW 310 0 min 0,000 mm 0 W/m 9,0 C 16,0 C 15,1 km/h (3 Bft) 0,00 %
07.09.2011 14:39 15,8 C 0,0 C 0,0 C 63 % 4 cb 1014,5 hPa 0,0 l/m 15,7 km/h (3 Bft) SW 235 0 min 0,000 mm 0 W/m 8,8 C 15,8 C 15,7 km/h (3 Bft) 0,00 %
07.09.2011 14:44 16,3 C 0,0 C 0,0 C 62 % 6 cb 1014,5 hPa 0,0 l/m 12,1 km/h (2 Bft) N-NO 30 0 min 0,000 mm 0 W/m 9,0 C 16,3 C 12,1 km/h (2 Bft) 0,00 %
07.09.2011 14:49 16,2 C 0,0 C 0,0 C 61 % 5 cb 1014,5 hPa 0,0 l/m 20,3 km/h (4 Bft) S-SW 195 0 min 0,000 mm 0 W/m 8,7 C 16,2 C 20,3 km/h (4 Bft) 0,00 %
07.09.2011 14:54 16,2 C 0,0 C 0,0 C 61 % 5 cb 1013,5 hPa 0,0 l/m 15,4 km/h (3 Bft) SW 225 0 min 0,000 mm 0 W/m 8,7 C 16,2 C 15,4 km/h (3 Bft) 0,00 %
07.09.2011 14:59 15,8 C 0,0 C 0,0 C 62 % 4 cb 1013,5 hPa 0,0 l/m 14,5 km/h (3 Bft) S-SW 205 0 min 0,000 mm 0 W/m 8,5 C 15,8 C 14,5 km/h (3 Bft) 0,00 %
07.09.2011 15:04 16,4 C 0,0 C 0,0 C 62 % 5 cb 1013,5 hPa 0,0 l/m 20,6 km/h (4 Bft) NW 315 0 min 0,000 mm 0 W/m 9,1 C 16,4 C 20,6 km/h (4 Bft) 0,00 %
07.09.2011 15:09 16,9 C 0,0 C 0,0 C 62 % 6 cb 1013,5 hPa 0,0 l/m 11,2 km/h (2 Bft) S-SO 165 0 min 0,000 mm 0 W/m 9,6 C 16,9 C 11,2 km/h (2 Bft) 0,00 %
07.09.2011 15:14 16,9 C 0,0 C 0,0 C 62 % 4 cb 1013,5 hPa 0,0 l/m 15,7 km/h (3 Bft) W-SW 245 0 min 0,000 mm 0 W/m 9,6 C 16,9 C 15,7 km/h (3 Bft) 0,00 %
07.09.2011 15:19 17,2 C 0,0 C 0,0 C 60 % 5 cb 1013,5 hPa 0,0 l/m 16,9 km/h (3 Bft) NW 305 0 min 0,000 mm 0 W/m 9,4 C 17,2 C 16,9 km/h (3 Bft) 0,00 %
07.09.2011 15:24 17,0 C 0,0 C 0,0 C 60 % 5 cb 1013,5 hPa 0,0 l/m 20,9 km/h (4 Bft) S-SW 210 0 min 0,000 mm 0 W/m 9,2 C 17,0 C 20,9 km/h (4 Bft) 0,00 %
07.09.2011 15:29 16,9 C 0,0 C 0,0 C 60 % 5 cb 1013,5 hPa 0,0 l/m 24,8 km/h (4 Bft) SW 225 0 min 0,000 mm 0 W/m 9,1 C 16,9 C 24,8 km/h (4 Bft) 0,00 %
07.09.2011 15:34 16,8 C 0,0 C 0,0 C 59 % 5 cb 1013,5 hPa 0,0 l/m 21,2 km/h (4 Bft) W 270 0 min 0,000 mm 0 W/m 8,7 C 16,8 C 21,2 km/h (4 Bft) 0,00 %
07.09.2011 15:39 16,6 C 0,0 C 0,0 C 59 % 4 cb 1013,5 hPa 0,0 l/m 20,0 km/h (4 Bft) W-SW 255 0 min 0,000 mm 0 W/m 8,6 C 16,6 C 20,0 km/h (4 Bft) 0,00 %
07.09.2011 15:44 16,3 C 0,0 C 0,0 C 61 % 0 cb 1013,5 hPa 0,0 l/m 13,3 km/h (3 Bft) NW 310 0 min 0,000 mm 0 W/m 8,8 C 16,3 C 13,3 km/h (3 Bft) 0,00 %
07.09.2011 15:49 16,2 C 0,0 C 0,0 C 61 % 0 cb 1013,5 hPa 0,0 l/m 11,8 km/h (2 Bft) N-NO 15 0 min 0,000 mm 0 W/m 8,7 C 16,2 C 11,8 km/h (2 Bft) 0,00 %
07.09.2011 15:54 15,9 C 0,0 C 0,0 C 62 % 0 cb 1013,5 hPa 0,0 l/m 13,3 km/h (3 Bft) N-NW 335 0 min 0,000 mm 0 W/m 8,6 C 15,9 C 13,3 km/h (3 Bft) 0,00 %
07.09.2011 15:59 15,8 C 0,0 C 0,0 C 62 % 0 cb 1013,5 hPa 0,0 l/m 14,8 km/h (3 Bft) SW 225 0 min 0,000 mm 0 W/m 8,5 C 15,8 C 14,8 km/h (3 Bft) 0,00 %
07.09.2011 16:04 16,0 C 0,0 C 0,0 C 62 % 3 cb 1013,5 hPa 0,0 l/m 21,8 km/h (4 Bft) SW 225 0 min 0,000 mm 0 W/m 8,7 C 16,0 C 21,8 km/h (4 Bft) 0,00 %
07.09.2011 16:09 16,2 C 0,0 C 0,0 C 62 % 3 cb 1013,5 hPa 0,0 l/m 20,6 km/h (4 Bft) W 265 0 min 0,000 mm 0 W/m 8,9 C 16,2 C 20,6 km/h (4 Bft) 0,00 %
07.09.2011 16:14 16,9 C 0,0 C 0,0 C 62 % 5 cb 1013,5 hPa 0,0 l/m 13,3 km/h (3 Bft) W-NW 300 0 min 0,000 mm 0 W/m 9,6 C 16,9 C 13,3 km/h (3 Bft) 0,00 %
07.09.2011 16:19 16,5 C 0,0 C 0,0 C 61 % 4 cb 1013,5 hPa 0,0 l/m 20,9 km/h (4 Bft) W-NW 295 0 min 0,000 mm 0 W/m 9,0 C 16,5 C 20,9 km/h (4 Bft) 0,00 %
07.09.2011 16:24 16,3 C 0,0 C 0,0 C 63 % 4 cb 1013,5 hPa 0,0 l/m 12,7 km/h (3 Bft) W 275 0 min 0,000 mm 0 W/m 9,2 C 16,3 C 12,7 km/h (3 Bft) 0,00 %
07.09.2011 16:29 16,4 C 0,0 C 0,0 C 63 % 1 cb 1013,5 hPa 0,0 l/m 16,9 km/h (3 Bft) W-SW 250 0 min 0,000 mm 0 W/m 9,3 C 16,4 C 16,9 km/h (3 Bft) 0,00 %
07.09.2011 16:34 16,6 C 0,0 C 0,0 C 60 % 6 cb 1013,5 hPa 0,0 l/m 22,4 km/h (4 Bft) O 100 0 min 0,000 mm 0 W/m 8,8 C 16,6 C 22,4 km/h (4 Bft) 0,00 %
07.09.2011 16:39 16,5 C 0,0 C 0,0 C 60 % 6 cb 1013,5 hPa 0,0 l/m 16,6 km/h (3 Bft) W-NW 285 0 min 0,000 mm 0 W/m 8,7 C 16,5 C 16,6 km/h (3 Bft) 0,00 %
07.09.2011 16:44 16,5 C 0,0 C 0,0 C 59 % 3 cb 1013,5 hPa 0,0 l/m 23,3 km/h (4 Bft) NW 310 0 min 0,000 mm 0 W/m 8,5 C 16,5 C 23,3 km/h (4 Bft) 0,00 %
07.09.2011 16:49 16,3 C 0,0 C 0,0 C 59 % 3 cb 1013,5 hPa 0,0 l/m 15,4 km/h (3 Bft) O-SO 120 0 min 0,000 mm 0 W/m 8,3 C 16,3 C 15,4 km/h (3 Bft) 0,00 %
07.09.2011 16:54 16,1 C 0,0 C 0,0 C 59 % 1 cb 1013,5 hPa 0,0 l/m 24,5 km/h (4 Bft) S-SO 150 0 min 0,000 mm 0 W/m 8,1 C 16,1 C 24,5 km/h (4 Bft) 0,00 %
07.09.2011 16:59 16,3 C 0,0 C 0,0 C 59 % 4 cb 1013,5 hPa 0,0 l/m 11,5 km/h (2 Bft) S 180 0 min 0,000 mm 0 W/m 8,3 C 16,3 C 11,5 km/h (2 Bft) 0,00 %
07.09.2011 17:04 16,3 C 0,0 C 0,0 C 59 % 4 cb 1013,5 hPa 0,0 l/m 13,3 km/h (3 Bft) SO 140 0 min 0,000 mm 0 W/m 8,3 C 16,3 C 13,3 km/h (3 Bft) 0,00 %
07.09.2011 17:09 16,4 C 0,0 C 0,0 C 59 % 6 cb 1013,5 hPa 0,0 l/m 15,4 km/h (3 Bft) N 5 0 min 0,000 mm 0 W/m 8,4 C 16,4 C 15,4 km/h (3 Bft) 0,00 %
07.09.2011 17:14 16,1 C 0,0 C 0,0 C 60 % 0 cb 1013,5 hPa 0,0 l/m 15,7 km/h (3 Bft) W-SW 245 0 min 0,000 mm 0 W/m 8,3 C 16,1 C 15,7 km/h (3 Bft) 0,00 %
07.09.2011 17:19 16,2 C 0,0 C 0,0 C 61 % 2 cb 1013,5 hPa 0,0 l/m 13,0 km/h (3 Bft) W-SW 240 0 min 0,000 mm 0 W/m 8,7 C 16,2 C 13,0 km/h (3 Bft) 0,00 %
07.09.2011 17:24 16,1 C 0,0 C 0,0 C 60 % 4 cb 1013,5 hPa 0,0 l/m 17,6 km/h (3 Bft) W 275 0 min 0,000 mm 0 W/m 8,3 C 16,1 C 17,6 km/h (3 Bft) 0,00 %
07.09.2011 17:29 16,1 C 0,0 C 0,0 C 61 % 3 cb 1013,5 hPa 0,0 l/m 14,2 km/h (3 Bft) N-NW 335 0 min 0,000 mm 0 W/m 8,6 C 16,1 C 14,2 km/h (3 Bft) 0,00 %
07.09.2011 17:34 16,0 C 0,0 C 0,0 C 61 % 0 cb 1013,5 hPa 0,0 l/m 15,4 km/h (3 Bft) O-SO 110 0 min 0,000 mm 0 W/m 8,5 C 16,0 C 15,4 km/h (3 Bft) 0,00 %
07.09.2011 17:39 16,1 C 0,0 C 0,0 C 61 % 0 cb 1013,5 hPa 0,0 l/m 14,5 km/h (3 Bft) N-NW 330 0 min 0,000 mm 0 W/m 8,6 C 16,1 C 14,5 km/h (3 Bft) 0,00 %
07.09.2011 17:43 15,9 C 0,0 C 0,0 C 61 % 0 cb 1013,5 hPa 0,0 l/m 20,3 km/h (4 Bft) W-SW 250 0 min 0,000 mm 0 W/m 8,4 C 15,9 C 20,3 km/h (4 Bft) 0,00 %
07.09.2011 17:48 15,9 C 0,0 C 0,0 C 62 % 0 cb 1013,5 hPa 0,0 l/m 13,3 km/h (3 Bft) SW 235 0 min 0,000 mm 0 W/m 8,6 C 15,9 C 13,3 km/h (3 Bft) 0,00 %
07.09.2011 17:53 16,2 C 0,0 C 0,0 C 63 % 3 cb 1013,5 hPa 0,0 l/m 14,5 km/h (3 Bft) S 185 0 min 0,000 mm 0 W/m 9,1 C 16,2 C 14,5 km/h (3 Bft) 0,00 %
07.09.2011 17:58 16,0 C 0,0 C 0,0 C 62 % 0 cb 1013,5 hPa 0,0 l/m 16,0 km/h (3 Bft) W-SW 250 0 min 0,000 mm 0 W/m 8,7 C 16,0 C 16,0 km/h (3 Bft) 0,00 %
07.09.2011 18:03 16,0 C 0,0 C 0,0 C 63 % 2 cb 1013,5 hPa 0,0 l/m 16,0 km/h (3 Bft) W-SW 240 0 min 0,000 mm 0 W/m 9,0 C 16,0 C 16,0 km/h (3 Bft) 0,00 %
07.09.2011 18:08 16,2 C 0,0 C 0,0 C 61 % 5 cb 1013,5 hPa 0,0 l/m 12,7 km/h (3 Bft) NW 325 0 min 0,000 mm 0 W/m 8,7 C 16,2 C 12,7 km/h (3 Bft) 0,00 %
07.09.2011 18:13 16,1 C 0,0 C 0,0 C 62 % 1 cb 1013,5 hPa 0,0 l/m 9,1 km/h (2 Bft) W 260 0 min 0,000 mm 0 W/m 8,8 C 16,1 C 9,1 km/h (2 Bft) 0,00 %
07.09.2011 18:18 16,0 C 0,0 C 0,0 C 62 % 0 cb 1013,5 hPa 0,0 l/m 12,1 km/h (2 Bft) W-SW 250 0 min 0,000 mm 0 W/m 8,7 C 16,0 C 12,1 km/h (2 Bft) 0,00 %
07.09.2011 18:23 15,8 C 0,0 C 0,0 C 63 % 0 cb 1014,5 hPa 0,0 l/m 8,8 km/h (2 Bft) W 275 0 min 0,000 mm 0 W/m 8,8 C 15,8 C 8,8 km/h (2 Bft) 0,00 %
07.09.2011 18:28 15,7 C 0,0 C 0,0 C 62 % 0 cb 1014,5 hPa 0,0 l/m 14,8 km/h (3 Bft) SW 235 0 min 0,000 mm 0 W/m 8,4 C 15,7 C 14,8 km/h (3 Bft) 0,00 %
07.09.2011 18:33 15,7 C 0,0 C 0,0 C 63 % 0 cb 1014,5 hPa 0,0 l/m 8,5 km/h (2 Bft) N-NO 15 0 min 0,000 mm 0 W/m 8,7 C 15,7 C 8,5 km/h (2 Bft) 0,00 %
07.09.2011 18:38 15,5 C 0,0 C 0,0 C 63 % 0 cb 1013,5 hPa 0,0 l/m 13,9 km/h (3 Bft) N 0 0 min 0,000 mm 0 W/m 8,5 C 15,5 C 13,9 km/h (3 Bft) 0,00 %
07.09.2011 18:43 15,4 C 0,0 C 0,0 C 63 % 0 cb 1013,5 hPa 0,0 l/m 13,9 km/h (3 Bft) S-SW 205 0 min 0,000 mm 0 W/m 8,4 C 15,4 C 13,9 km/h (3 Bft) 0,00 %
07.09.2011 18:48 15,2 C 0,0 C 0,0 C 63 % 0 cb 1013,5 hPa 0,0 l/m 14,8 km/h (3 Bft) W-NW 295 0 min 0,000 mm 0 W/m 8,2 C 15,2 C 14,8 km/h (3 Bft) 0,00 %
07.09.2011 18:53 15,1 C 0,0 C 0,0 C 64 % 0 cb 1014,5 hPa 0,0 l/m 13,3 km/h (3 Bft) W 265 0 min 0,000 mm 0 W/m 8,3 C 15,1 C 13,3 km/h (3 Bft) 0,00 %
07.09.2011 18:58 15,0 C 0,0 C 0,0 C 64 % 0 cb 1014,5 hPa 0,0 l/m 14,5 km/h (3 Bft) W 265 0 min 0,000 mm 0 W/m 8,2 C 15,0 C 14,5 km/h (3 Bft) 0,00 %
07.09.2011 19:03 15,0 C 0,0 C 0,0 C 64 % 0 cb 1014,5 hPa 0,0 l/m 15,4 km/h (3 Bft) W 280 0 min 0,000 mm 0 W/m 8,2 C 15,0 C 15,4 km/h (3 Bft) 0,00 %
07.09.2011 19:08 14,9 C 0,0 C 0,0 C 65 % 0 cb 1014,5 hPa 0,0 l/m 8,2 km/h (2 Bft) W 280 0 min 0,000 mm 0 W/m 8,4 C 14,9 C 8,2 km/h (2 Bft) 0,00 %
07.09.2011 19:13 14,9 C 0,0 C 0,0 C 65 % 0 cb 1014,5 hPa 0,0 l/m 14,5 km/h (3 Bft) W-SW 240 0 min 0,000 mm 0 W/m 8,4 C 14,9 C 14,5 km/h (3 Bft) 0,00 %
07.09.2011 19:18 14,7 C 0,0 C 0,0 C 65 % 0 cb 1014,5 hPa 0,0 l/m 9,7 km/h (2 Bft) S-SW 205 0 min 0,000 mm 0 W/m 8,2 C 14,7 C 9,7 km/h (2 Bft) 0,00 %
07.09.2011 19:23 14,6 C 0,0 C 0,0 C 65 % 0 cb 1013,5 hPa 0,0 l/m 6,4 km/h (2 Bft) W-NW 295 0 min 0,000 mm 0 W/m 8,1 C 14,6 C 6,4 km/h (2 Bft) 0,00 %
07.09.2011 19:28 14,6 C 0,0 C 0,0 C 65 % 0 cb 1013,5 hPa 0,0 l/m 6,1 km/h (2 Bft) O-SO 120 0 min 0,000 mm 0 W/m 8,1 C 14,6 C 6,1 km/h (2 Bft) 0,00 %
07.09.2011 19:33 14,6 C 0,0 C 0,0 C 66 % 0 cb 1013,5 hPa 0,0 l/m 8,2 km/h (2 Bft) N 350 0 min 0,000 mm 0 W/m 8,3 C 14,6 C 8,2 km/h (2 Bft) 0,00 %
07.09.2011 19:38 14,6 C 0,0 C 0,0 C 66 % 0 cb 1014,5 hPa 0,0 l/m 10,0 km/h (2 Bft) S-SW 205 0 min 0,000 mm 0 W/m 8,3 C 14,6 C 10,0 km/h (2 Bft) 0,00 %
07.09.2011 19:43 14,5 C 0,0 C 0,0 C 66 % 0 cb 1014,5 hPa 0,0 l/m 9,7 km/h (2 Bft) W-SW 245 0 min 0,000 mm 0 W/m 8,2 C 14,5 C 9,7 km/h (2 Bft) 0,00 %
07.09.2011 19:48 14,4 C 0,0 C 0,0 C 67 % 0 cb 1014,5 hPa 0,0 l/m 2,4 km/h (1 Bft) S-SO 160 0 min 0,000 mm 0 W/m 8,4 C 14,4 C 2,4 km/h (1 Bft) 0,00 %
07.09.2011 19:53 14,3 C 0,0 C 0,0 C 66 % 0 cb 1014,5 hPa 0,0 l/m 5,1 km/h (1 Bft) O 100 0 min 0,000 mm 0 W/m 8,0 C 14,3 C 5,1 km/h (1 Bft) 0,00 %
07.09.2011 19:58 14,2 C 0,0 C 0,0 C 67 % 0 cb 1014,5 hPa 0,0 l/m 4,8 km/h (1 Bft) W 270 0 min 0,000 mm 0 W/m 8,2 C 14,2 C 4,8 km/h (1 Bft) 0,00 %
07.09.2011 20:03 14,3 C 0,0 C 0,0 C 66 % 0 cb 1014,5 hPa 0,0 l/m 14,2 km/h (3 Bft) W 270 0 min 0,000 mm 0 W/m 8,0 C 14,3 C 14,2 km/h (3 Bft) 0,00 %
07.09.2011 20:08 14,3 C 0,0 C 0,0 C 67 % 0 cb 1014,5 hPa 0,0 l/m 5,1 km/h (1 Bft) S 190 0 min 0,000 mm 0 W/m 8,3 C 14,3 C 5,1 km/h (1 Bft) 0,00 %
07.09.2011 20:13 14,2 C 0,0 C 0,0 C 67 % 0 cb 1014,5 hPa 0,0 l/m 9,4 km/h (2 Bft) SW 235 0 min 0,000 mm 0 W/m 8,2 C 14,2 C 9,4 km/h (2 Bft) 0,00 %
07.09.2011 20:18 14,2 C 0,0 C 0,0 C 67 % 0 cb 1014,5 hPa 0,0 l/m 12,4 km/h (3 Bft) SO 135 0 min 0,000 mm 0 W/m 8,2 C 14,2 C 12,4 km/h (3 Bft) 0,00 %
07.09.2011 20:23 14,0 C 0,0 C 0,0 C 67 % 0 cb 1013,5 hPa 0,0 l/m 6,7 km/h (2 Bft) S-SW 195 0 min 0,000 mm 0 W/m 8,0 C 14,0 C 6,7 km/h (2 Bft) 0,00 %
07.09.2011 20:28 13,9 C 0,0 C 0,0 C 68 % 0 cb 1013,5 hPa 0,0 l/m 3,9 km/h (1 Bft) SW 225 0 min 0,000 mm 0 W/m 8,1 C 13,9 C 3,9 km/h (1 Bft) 0,00 %
07.09.2011 20:33 13,8 C 0,0 C 0,0 C 69 % 0 cb 1013,5 hPa 0,0 l/m 0,0 km/h (0 Bft) W 270 0 min 0,000 mm 0 W/m 8,2 C 13,8 C 0,0 km/h (0 Bft) 0,00 %
07.09.2011 20:38 13,8 C 0,0 C 0,0 C 68 % 0 cb 1014,5 hPa 0,0 l/m 8,8 km/h (2 Bft) W-SW 245 0 min 0,000 mm 0 W/m 8,0 C 13,8 C 8,8 km/h (2 Bft) 0,00 %
07.09.2011 20:43 13,8 C 0,0 C 0,0 C 69 % 0 cb 1014,5 hPa 0,0 l/m 6,7 km/h (2 Bft) W-SW 245 0 min 0,000 mm 0 W/m 8,2 C 13,8 C 6,7 km/h (2 Bft) 0,00 %
07.09.2011 20:48 13,8 C 0,0 C 0,0 C 68 % 0 cb 1014,5 hPa 0,0 l/m 8,2 km/h (2 Bft) N 10 0 min 0,000 mm 0 W/m 8,0 C 13,8 C 8,2 km/h (2 Bft) 0,00 %
07.09.2011 20:53 13,8 C 0,0 C 0,0 C 68 % 0 cb 1014,5 hPa 0,0 l/m 3,0 km/h (1 Bft) W 260 0 min 0,000 mm 0 W/m 8,0 C 13,8 C 3,0 km/h (1 Bft) 0,00 %
07.09.2011 20:58 13,8 C 0,0 C 0,0 C 68 % 0 cb 1014,5 hPa 0,0 l/m 5,4 km/h (1 Bft) SW 215 0 min 0,000 mm 0 W/m 8,0 C 13,8 C 5,4 km/h (1 Bft) 0,00 %
07.09.2011 21:03 13,8 C 0,0 C 0,0 C 68 % 0 cb 1014,5 hPa 0,0 l/m 4,5 km/h (1 Bft) SO 130 0 min 0,000 mm 0 W/m 8,0 C 13,8 C 4,5 km/h (1 Bft) 0,00 %
07.09.2011 21:08 13,8 C 0,0 C 0,0 C 68 % 0 cb 1014,5 hPa 0,0 l/m 6,1 km/h (2 Bft) NW 315 0 min 0,000 mm 0 W/m 8,0 C 13,8 C 6,1 km/h (2 Bft) 0,00 %
07.09.2011 21:13 13,8 C 0,0 C 0,0 C 69 % 0 cb 1014,5 hPa 0,0 l/m 4,5 km/h (1 Bft) W 260 0 min 0,000 mm 0 W/m 8,2 C 13,8 C 4,5 km/h (1 Bft) 0,00 %
07.09.2011 21:23 13,8 C 0,0 C 0,0 C 69 % 0 cb 1013,5 hPa 0,0 l/m 3,3 km/h (1 Bft) W-SW 245 0 min 0,000 mm 0 W/m 8,2 C 13,8 C 3,3 km/h (1 Bft) 0,00 %
07.09.2011 21:28 13,7 C 0,0 C 0,0 C 69 % 0 cb 1013,5 hPa 0,0 l/m 2,7 km/h (1 Bft) W-NW 295 0 min 0,000 mm 0 W/m 8,1 C 13,7 C 2,7 km/h (1 Bft) 0,00 %
07.09.2011 21:33 13,8 C 0,0 C 0,0 C 69 % 0 cb 1013,5 hPa 0,0 l/m 5,1 km/h (1 Bft) W-NW 285 0 min 0,000 mm 0 W/m 8,2 C 13,8 C 5,1 km/h (1 Bft) 0,00 %
07.09.2011 21:38 13,7 C 0,0 C 0,0 C 69 % 0 cb 1014,5 hPa 0,0 l/m 3,3 km/h (1 Bft) N-NW 345 0 min 0,000 mm 0 W/m 8,1 C 13,7 C 3,3 km/h (1 Bft) 0,00 %
07.09.2011 21:43 13,7 C 0,0 C 0,0 C 69 % 0 cb 1014,5 hPa 0,0 l/m 5,1 km/h (1 Bft) NW 305 0 min 0,000 mm 0 W/m 8,1 C 13,7 C 5,1 km/h (1 Bft) 0,00 %
07.09.2011 21:48 13,8 C 0,0 C 0,0 C 69 % 0 cb 1014,5 hPa 0,0 l/m 8,5 km/h (2 Bft) W-SW 255 0 min 0,000 mm 0 W/m 8,2 C 13,8 C 8,5 km/h (2 Bft) 0,00 %
07.09.2011 21:53 13,8 C 0,0 C 0,0 C 69 % 0 cb 1014,5 hPa 0,0 l/m 4,5 km/h (1 Bft) O-SO 110 0 min 0,000 mm 0 W/m 8,2 C 13,8 C 4,5 km/h (1 Bft) 0,00 %
07.09.2011 21:58 13,7 C 0,0 C 0,0 C 69 % 0 cb 1014,5 hPa 0,0 l/m 3,9 km/h (1 Bft) W-SW 250 0 min 0,000 mm 0 W/m 8,1 C 13,7 C 3,9 km/h (1 Bft) 0,00 %
07.09.2011 22:03 13,7 C 0,0 C 0,0 C 69 % 0 cb 1014,5 hPa 0,0 l/m 3,0 km/h (1 Bft) S 185 0 min 0,000 mm 0 W/m 8,1 C 13,7 C 3,0 km/h (1 Bft) 0,00 %
07.09.2011 22:08 13,7 C 0,0 C 0,0 C 69 % 0 cb 1014,5 hPa 0,0 l/m 7,0 km/h (2 Bft) W 280 0 min 0,000 mm 0 W/m 8,1 C 13,7 C 7,0 km/h (2 Bft) 0,00 %
07.09.2011 22:13 13,6 C 0,0 C 0,0 C 70 % 0 cb 1014,5 hPa 0,0 l/m 7,3 km/h (2 Bft) NW 320 0 min 0,000 mm 0 W/m 8,2 C 13,6 C 7,3 km/h (2 Bft) 0,00 %
07.09.2011 22:18 13,6 C 0,0 C 0,0 C 70 % 0 cb 1014,5 hPa 0,0 l/m 6,1 km/h (2 Bft) W-SW 240 0 min 0,000 mm 0 W/m 8,2 C 13,6 C 6,1 km/h (2 Bft) 0,00 %
07.09.2011 22:23 13,6 C 0,0 C 0,0 C 70 % 0 cb 1014,5 hPa 0,0 l/m 6,4 km/h (2 Bft) W 260 0 min 0,000 mm 0 W/m 8,2 C 13,6 C 6,4 km/h (2 Bft) 0,00 %
07.09.2011 22:28 13,6 C 0,0 C 0,0 C 70 % 0 cb 1014,5 hPa 0,0 l/m 7,0 km/h (2 Bft) S 185 0 min 0,000 mm 0 W/m 8,2 C 13,6 C 7,0 km/h (2 Bft) 0,00 %
07.09.2011 22:33 13,6 C 0,0 C 0,0 C 71 % 0 cb 1014,5 hPa 0,0 l/m 6,1 km/h (2 Bft) W-SW 245 0 min 0,000 mm 0 W/m 8,4 C 13,6 C 6,1 km/h (2 Bft) 0,00 %
07.09.2011 22:38 13,6 C 0,0 C 0,0 C 71 % 0 cb 1014,5 hPa 0,0 l/m 3,9 km/h (1 Bft) SW 215 0 min 0,000 mm 0 W/m 8,4 C 13,6 C 3,9 km/h (1 Bft) 0,00 %
07.09.2011 22:43 13,6 C 0,0 C 0,0 C 71 % 0 cb 1014,5 hPa 0,0 l/m 7,9 km/h (2 Bft) W-SW 245 0 min 0,000 mm 0 W/m 8,4 C 13,6 C 7,9 km/h (2 Bft) 0,00 %
07.09.2011 22:48 13,6 C 0,0 C 0,0 C 70 % 0 cb 1014,5 hPa 0,0 l/m 9,1 km/h (2 Bft) S-SW 195 0 min 0,000 mm 0 W/m 8,2 C 13,6 C 9,1 km/h (2 Bft) 0,00 %
07.09.2011 22:53 13,6 C 0,0 C 0,0 C 70 % 0 cb 1014,5 hPa 0,0 l/m 7,3 km/h (2 Bft) NW 305 0 min 0,000 mm 0 W/m 8,2 C 13,6 C 7,3 km/h (2 Bft) 0,00 %
07.09.2011 22:58 13,6 C 0,0 C 0,0 C 70 % 0 cb 1014,5 hPa 0,0 l/m 15,7 km/h (3 Bft) SW 225 0 min 0,000 mm 0 W/m 8,2 C 13,6 C 15,7 km/h (3 Bft) 0,00 %
07.09.2011 23:03 13,8 C 0,0 C 0,0 C 69 % 0 cb 1014,5 hPa 0,0 l/m 14,2 km/h (3 Bft) N-NW 335 0 min 0,000 mm 0 W/m 8,2 C 13,8 C 14,2 km/h (3 Bft) 0,00 %
07.09.2011 23:08 13,8 C 0,0 C 0,0 C 68 % 0 cb 1014,5 hPa 0,0 l/m 15,7 km/h (3 Bft) W-SW 245 0 min 0,000 mm 0 W/m 8,0 C 13,8 C 15,7 km/h (3 Bft) 0,00 %
07.09.2011 23:13 13,9 C 0,0 C 0,0 C 67 % 0 cb 1014,5 hPa 0,0 l/m 13,6 km/h (3 Bft) W 260 0 min 0,000 mm 0 W/m 7,9 C 13,9 C 13,6 km/h (3 Bft) 0,00 %
07.09.2011 23:18 13,8 C 0,0 C 0,0 C 68 % 0 cb 1014,5 hPa 0,0 l/m 10,9 km/h (2 Bft) SW 230 0 min 0,000 mm 0 W/m 8,0 C 13,8 C 10,9 km/h (2 Bft) 0,00 %
07.09.2011 23:23 13,8 C 0,0 C 0,0 C 68 % 0 cb 1013,5 hPa 0,0 l/m 11,5 km/h (2 Bft) NW 305 0 min 0,000 mm 0 W/m 8,0 C 13,8 C 11,5 km/h (2 Bft) 0,00 %
07.09.2011 23:28 13,7 C 0,0 C 0,0 C 69 % 0 cb 1013,5 hPa 0,0 l/m 7,9 km/h (2 Bft) NW 310 0 min 0,000 mm 0 W/m 8,1 C 13,7 C 7,9 km/h (2 Bft) 0,00 %
07.09.2011 23:33 13,6 C 0,0 C 0,0 C 69 % 0 cb 1013,5 hPa 0,0 l/m 11,5 km/h (2 Bft) W 275 0 min 0,000 mm 0 W/m 8,0 C 13,6 C 11,5 km/h (2 Bft) 0,00 %
07.09.2011 23:39 13,5 C 0,0 C 0,0 C 70 % 0 cb 1014,5 hPa 0,0 l/m 8,8 km/h (2 Bft) SW 220 0 min 0,000 mm 0 W/m 8,1 C 13,5 C 8,8 km/h (2 Bft) 0,00 %
07.09.2011 23:44 13,5 C 0,0 C 0,0 C 70 % 0 cb 1014,5 hPa 0,0 l/m 9,7 km/h (2 Bft) S 175 0 min 0,000 mm 0 W/m 8,1 C 13,5 C 9,7 km/h (2 Bft) 0,00 %
07.09.2011 23:49 13,4 C 0,0 C 0,0 C 70 % 0 cb 1014,5 hPa 0,0 l/m 12,1 km/h (2 Bft) W-NW 300 0 min 0,000 mm 0 W/m 8,0 C 13,4 C 12,1 km/h (2 Bft) 0,00 %
07.09.2011 23:54 13,4 C 0,0 C 0,0 C 71 % 0 cb 1014,5 hPa 0,0 l/m 9,4 km/h (2 Bft) W 275 0 min 0,000 mm 0 W/m 8,3 C 13,4 C 9,4 km/h (2 Bft) 0,00 %
07.09.2011 23:59 13,4 C 0,0 C 0,0 C 71 % 0 cb 1014,5 hPa 0,0 l/m 9,7 km/h (2 Bft) W 280 0 min 0,000 mm 0 W/m 8,3 C 13,4 C 9,7 km/h (2 Bft) 0,00 %
_ Min-Zeit 07:48 00:03 00:03 15:34 00:03 03:53 - 20:33 - - - - - 23:13 07:48 20:33 00:03
Minimum _ 11,0 C 0,0 C 0,0 C 59 % 0 cb 1010,5 hPa - 0,0 km/h (0 Bft) - - - - - 7,9 C 11,0 C 0,0 km/h (0 Bft) 0,00 %
_ Max-Zeit 15:19 00:03 00:03 05:33 13:09 10:54 02:38 14:09 - - 00:03 00:03 00:03 06:58 15:19 14:09 00:03
Maximum _ 17,2 C 0,0 C 0,0 C 87 % 7 cb 1014,5 hPa 0,6 l/m 29,0 km/h
W (5 Bft)
- - 0 min 0,000 mm 0 W/m 11,5 C 17,2 C 29,0 km/h
W (5 Bft)
0,00 %
Durchschnitt _ 14,3 C 0,0 C 0,0 C 73 % 1 cb 1012,9 hPa #10,9 l/m 14,0 km/h (3 Bft) W - #0 min. #0,000 mm 0 W/m 9,4 C 14,3 C 14,0 km/h (3 Bft) 0,00 %
Wetterstation Gdesweiler